Satellite: NOAA-18
Catalog number: 28654
Epoch time:      08137.85562989
Element set:    0430
Inclination:      098.8653 deg
RA of node:       079.1726 deg
Eccentricity:    0.0015250
Arg of perigee:   044.7592 deg
Mean anomaly:     315.4802 deg
Mean motion:   14.11161896 rev/day
Decay rate:      -1.33e-06 rev/day^2
Epoch rev:           15405
Checksum:              321

/EX
SB KEPS @ AMSAT  $ORB08138.M
Orbital Elements  08138.MISC

HR AMSAT ORBITAL ELEMENTS FOR MANNED AND MISCELLANEOUS SATELLITES
FROM WA5QGD FORT WORTH,TX May 17, 2008
Send Subscribe/unsubscribe to KEPS at 
http://www.amsat.org/mailman/listinfo/keps
BID: ORB08138.M
TO ALL RADIO AMATEURS BT

Satellite: HUBBLE
Catalog number: 20580
Epoch time:      08137.41467609
Element set:    0141
Inclination:      028.4684 deg
RA of node:       170.4532 deg
Eccentricity:    0.0003659
Arg of perigee:   047.7326 deg
Mean anomaly:     312.3574 deg
Mean motion:   15.00377619 rev/day
Decay rate:       2.55e-06 rev/day^2
Epoch rev:           79020
Checksum:              286

Satellite: UARS
Catalog number: 21701
Epoch time:      08137.91635308
Element set:    0385
Inclination:      056.9731 deg
RA of node:       297.8103 deg
Eccentricity:    0.0090042
Arg of perigee:   119.2544 deg
Mean anomaly:     241.7559 deg
Mean motion:   15.51756597 rev/day
Decay rate:      5.557e-05 rev/day^2
Epoch rev:           91764
Checksum:              324

Satellite: PO-34
Catalog number: 25520
Epoch time:      08137.95121538
Element set:    0001
Inclination:      028.4592 deg
RA of node:       027.8970 deg
Eccentricity:    0.0005224
Arg of perigee:   302.0861 deg
Mean anomaly:     057.9224 deg
Mean motion:   15.17189318 rev/day
Decay rate:       3.59e-06 rev/day^2
Epoch rev:           52841
Checksum:              291

Satellite: ISS
Catalog number: 25544
Epoch time:      08138.85293981
Element set:     496
Inclination:      051.6402 deg
RA of node:       172.7560 deg
Eccentricity:    0.0005720
Arg of perigee:   220.4168 deg
Mean anomaly:     118.8720 deg
Mean motion:   15.76327413 rev/day
Decay rate:      7.470e-05 rev/day^2
Epoch rev:           54373
Checksum:              301

Satellite: OO-38
Catalog number: 26063
Epoch time:      08138.70024501
Element set:     212
Inclination:      100.1918 deg
RA of node:       207.7967 deg
Eccentricity:    0.0036602
Arg of perigee:   295.8674 deg
Mean anomaly:     063.8736 deg
Mean motion:   14.35835088 rev/day
Decay rate:       -3.0e-07 rev/day^2
Epoch rev:           43519
Checksum:              303

Satellite: UWE-1
Catalog number: 28892
Epoch time:      08137.75607733
Element set:    0049
Inclination:      098.0989 deg
RA of node:       032.1428 deg
Eccentricity:    0.0018008
Arg of perigee:   144.5573 deg
Mean anomaly:     215.6854 deg
Mean motion:   14.59626983 rev/day
Decay rate:        6.3e-07 rev/day^2
Epoch rev:           13601
Checksum:              324

Satellite: CO-58
Catalog number: 28895
Epoch time:      08137.72486058
Element set:      22
Inclination:      098.1026 deg
RA of node:       032.4582 deg
Eccentricity:    0.0018402
Arg of perigee:   145.0158 deg
Mean anomaly:     215.2275 deg
Mean motion:   14.59666956 rev/day
Decay rate:       -2.1e-07 rev/day^2
Epoch rev:           13589
Checksum:              319

Satellite: NCUBE2
Catalog number: 28897
Epoch time:      08137.28180856
Element set:     552
Inclination:      098.0998 deg
RA of node:       031.9577 deg
Eccentricity:    0.0017581
Arg of perigee:   146.7840 deg
Mean anomaly:     213.4465 deg
Mean motion:   14.59837604 rev/day
Decay rate:       1.22e-06 rev/day^2
Epoch rev:           12811
Checksum:              331

Satellite: FCAL
Catalog number: 29667
Epoch time:      08138.39402321
Element set:     956
Inclination:      051.6157 deg
RA of node:       109.9698 deg
Eccentricity:    0.0001052
Arg of perigee:   293.8925 deg
Mean anomaly:     066.2226 deg
Mean motion:   16.27993597 rev/day
Decay rate:    4.28128e-03 rev/day^2
Epoch rev:            8161
Checksum:              336

Satellite: FALCON
Catalog number: 30776
Epoch time:      08137.95469598
Element set:    0315
Inclination:      035.4353 deg
RA of node:       342.9094 deg
Eccentricity:    0.0000504
Arg of perigee:   025.9403 deg
Mean anomaly:     334.1338 deg
Mean motion:   15.02982498 rev/day
Decay rate:       2.90e-06 rev/day^2
Epoch rev:           06544
Checksum:              304

Satellite: MAST
Catalog number: 31126
Epoch time:      08138.60601815
Element set:     328
Inclination:      098.0399 deg
RA of node:       204.2587 deg
Eccentricity:    0.0095850
Arg of perigee:   066.9638 deg
Mean anomaly:     294.1650 deg
Mean motion:   14.53422597 rev/day
Decay rate:       -3.7e-07 rev/day^2
Epoch rev:            5757
Checksum:              318

Satellite: CAPE1
Catalog number: 31130
Epoch time:      08138.18153110
Element set:     308
Inclination:      098.0418 deg
RA of node:       202.9333 deg
Eccentricity:    0.0103984
Arg of perigee:   070.8159 deg
Mean anomaly:     290.4250 deg
Mean motion:   14.51962066 rev/day
Decay rate:       1.29e-06 rev/day^2
Epoch rev:            5722
Checksum:              266

